Weather History for De Queen, AR

Change the Weather History Date:

Sunday, May 19, 2013

  Actual Average Record
Temperature  
Mean Temperature 77 °F 71 °F  
Max Temperature 89 °F 82 °F 96 °F (1956)
Min Temperature 65 °F 60 °F 44 °F (2002)
Degree Days  
Heating Degree Days 0 0  
Month to date heating degree days 69 21  
Since 1 July heating degree days 3050 3042  
Cooling Degree Days 12 6  
Month to date cooling degree days 53 81  
Year to date cooling degree days 113 128  
Growing Degree Days 26 (Base 50)    
Moisture  
Dew Point 67 °F    
Average Humidity 75    
Maximum Humidity 100    
Minimum Humidity 50    
Precipitation  
Precipitation 0.00 in 0.17 in 2.45 in (2000)
Month to date precipitation 2.19 3.91  
Year to date precipitation 9.47 19.48  
Snow  
Snow 0.00 in - - ()
Month to date snowfall 0.0  
Since 1 July snowfall 4.5  
Snow Depth 0.00 in    
Sea Level Pressure  
Sea Level Pressure 29.83 in    
Wind  
Wind Speed 7 mph (SSE)    
Max Wind Speed 18 mph    
Max Gust Speed 26 mph    
Visibility 5 miles    
Events Fog    
T = Trace of Precipitation, MM = Missing Value Source: NWS Daily Summary

Daily Weather History Graph

Daily Weather History Graph

Search for Another Location

Airport:

Trip Planner

Search our weather history database for the weather conditions in past years. The results will help you decide how hot, cold, wet, or windy it might be!

Date:

Astronomy

May. 19, 2013 Rise Set
Actual Time 6:13 AM CDT 8:15 PM CDT
Civil Twilight 5:45 AM CDT 8:43 PM CDT
Nautical Twilight 5:11 AM CDT 9:17 PM CDT
Astronomical Twilight 4:34 AM CDT 9:54 PM CDT
Moon 2:35 PM CDT (5/19) 2:20 AM CDT (5/19)
Length of Visible Light 14h 58m
Length of Day
14h 02m
Waxing Gibbous, 65% of the Moon is Illuminated
May 19
Waxing Gibbous
May 24
Full
May 31
Last Quarter
Jun 8
New
Jun 16
First Quarter

Hourly Weather History & Observations

Time (CDT) Temp. Heat Index Dew Point Humidity Pressure Visibility Wind Dir Wind Speed Gust Speed Precip Events Conditions
12:53 AM 75.9 °F - 71.1 °F 85% 29.83 in 6.0 mi Calm Calm - N/A   Haze
1:53 AM 75.9 °F - 70.0 °F 82% 29.83 in 7.0 mi South 3.5 mph - N/A   Clear
2:53 AM 70.0 °F - 69.1 °F 97% 29.83 in 3.0 mi Calm Calm - N/A   Clear
3:07 AM 70.0 °F - 68.0 °F 93% 29.84 in 2.0 mi Calm Calm - N/A   Clear
3:16 AM 69.1 °F - 68.0 °F 96% 29.84 in 1.8 mi East 3.5 mph - N/A   Clear
3:23 AM 69.1 °F - 68.0 °F 96% 29.84 in 2.5 mi ENE 3.5 mph - N/A   Clear
3:36 AM 69.1 °F - 68.0 °F 96% 29.84 in 1.8 mi Calm Calm - N/A   Clear
3:47 AM 69.8 °F - 66.2 °F 88% 29.84 in 0.8 mi Calm Calm - N/A   Mist
3:53 AM 69.1 °F - 66.9 °F 93% 29.83 in 0.5 mi Calm Calm - N/A Fog Fog
3:56 AM 68.0 °F - 66.9 °F 96% 29.85 in 1.0 mi Calm Calm - N/A   Clear
4:07 AM 68.0 °F - 66.0 °F 93% 29.85 in 0.2 mi Calm Calm - N/A Fog Fog
4:24 AM 68.0 °F - 66.9 °F 96% 29.85 in 0.2 mi NNE 3.5 mph - N/A Fog Fog
4:47 AM 68.0 °F - 66.2 °F 94% 29.85 in 1.0 mi Calm Calm - N/A   Mist
4:50 AM 68.0 °F - 66.2 °F 94% 29.86 in 2.0 mi Calm Calm - N/A   Partly Cloudy
4:53 AM 66.9 °F - 66.0 °F 97% 29.84 in 2.0 mi Calm Calm - N/A   Partly Cloudy
4:58 AM 66.0 °F - 64.9 °F 96% 29.85 in 1.0 mi Calm Calm - N/A   Mist
5:03 AM 66.0 °F - 64.9 °F 96% 29.85 in 0.2 mi Calm Calm - N/A Fog Fog
5:11 AM 66.0 °F - 64.9 °F 96% 29.85 in 0.5 mi East 3.5 mph - N/A Fog Fog
5:19 AM 64.9 °F - 64.0 °F 97% 29.85 in 0.5 mi East 4.6 mph - N/A Fog Fog
5:27 AM 64.9 °F - 64.0 °F 97% 29.85 in 0.2 mi East 3.5 mph - N/A Fog Fog
5:34 AM 64.9 °F - 64.9 °F 100% 29.85 in 0.8 mi Calm Calm - N/A   Mist
5:37 AM 64.9 °F - 64.0 °F 97% 29.85 in 1.2 mi ESE 4.6 mph - N/A   Scattered Clouds
5:42 AM 64.9 °F - 64.0 °F 97% 29.85 in 3.0 mi ESE 4.6 mph - N/A   Scattered Clouds
5:53 AM 64.9 °F - 64.0 °F 97% 29.83 in 3.0 mi ESE 4.6 mph - N/A   Partly Cloudy
6:19 AM 64.9 °F - 64.0 °F 97% 29.86 in 2.5 mi East 4.6 mph - N/A   Clear
7:08 AM 68.0 °F - 66.0 °F 93% 29.87 in 3.0 mi ESE 3.5 mph - N/A   Clear
7:53 AM 72.0 °F - 68.0 °F 87% 29.86 in 5.0 mi Variable 3.5 mph - N/A   Clear
8:26 AM 73.0 °F - 68.0 °F 84% 29.88 in 6.0 mi SSW 5.8 mph - N/A   Haze
8:53 AM 73.0 °F - 66.9 °F 81% 29.87 in 6.0 mi South 5.8 mph - N/A   Haze
9:14 AM 73.0 °F - 66.9 °F 81% 29.89 in 6.0 mi SSW 8.1 mph - N/A   Haze
9:45 AM 73.9 °F - 68.0 °F 82% 29.89 in 6.0 mi South 6.9 mph - N/A   Haze
9:53 AM 73.9 °F - 68.0 °F 82% 29.88 in 8.0 mi South 6.9 mph - N/A   Mostly Cloudy
10:39 AM 77.0 °F - 68.0 °F 74% 29.88 in 8.0 mi South 9.2 mph - N/A   Scattered Clouds
10:53 AM 78.1 °F - 68.0 °F 71% 29.86 in 8.0 mi South 8.1 mph 19.6 mph N/A   Mostly Cloudy
11:05 AM 78.1 °F - 68.0 °F 71% 29.88 in 8.0 mi SSW 8.1 mph - N/A   Scattered Clouds
11:53 AM 80.1 °F 82.3 °F 66.9 °F 64% 29.85 in 9.0 mi South 11.5 mph 17.3 mph N/A   Partly Cloudy
12:53 PM 82.9 °F 86.5 °F 69.1 °F 63% 29.82 in 9.0 mi SSE 9.2 mph 19.6 mph N/A   Partly Cloudy
2:53 PM 87.1 °F 90.6 °F 68.0 °F 53% 29.78 in 10.0 mi South 12.7 mph 17.3 mph N/A   Clear
3:53 PM 88.0 °F 91.4 °F 68.0 °F 51% 29.75 in 10.0 mi SSE 13.8 mph 21.9 mph N/A   Clear
4:53 PM 88.0 °F 91.4 °F 68.0 °F 51% 29.73 in 10.0 mi SSE 8.1 mph 21.9 mph N/A   Clear
5:53 PM 87.1 °F 89.9 °F 66.9 °F 51% 29.71 in 10.0 mi SSE 11.5 mph 21.9 mph N/A   Clear
6:53 PM 86.0 °F 88.8 °F 66.9 °F 53% 29.72 in 10.0 mi SSE 9.2 mph 18.4 mph N/A   Clear
7:53 PM 82.9 °F 85.8 °F 68.0 °F 60% 29.73 in 10.0 mi SSE 6.9 mph - N/A   Clear
8:53 PM 81.0 °F 83.8 °F 68.0 °F 65% 29.75 in 10.0 mi SE 5.8 mph - N/A   Clear
9:53 PM 81.0 °F 83.3 °F 66.9 °F 62% 29.77 in 10.0 mi SSE 8.1 mph - N/A   Clear
11:53 PM 78.1 °F - 66.0 °F 66% 29.77 in 10.0 mi South 9.2 mph - N/A   Clear